Orbital Elements at Epoch 2454195.5 (2007-Apr-05.0) TDB
Reference: JPL 9 (heliocentric ecliptic J2000)
Element | Value | Uncertainty (1-sigma) | Units |
e | .5519165282894116 | 4.9862e-07 | |
a | 4.195416939717139 | 1.3759e-07 | au |
q | 1.879896987621868 | 2.0982e-06 | au |
i | 17.71141991753039 | 3.9273e-05 | deg |
node | 341.8127205359627 | 5.2232e-05 | deg |
peri | 30.32950194075691 | 0.00031504 | deg |
M | 355.8432493056803 | 6.9308e-05 | deg |
tp | 2454231.742036650358 (2007-May-11.24203665) | 0.00060579 | TDB |
period | 3138.781744105625 8.59 | 0.00015441 4.228e-07 | d yr |
n | .1146941805291338 | 5.6423e-09 | deg/d |
Q | 6.510936891812411 | 2.1354e-07 | au |
|
| | Orbit Determination Parameters
Additional Information
|